WORLDVIEW-2 (WV-2)

Last updated on Sun Jul 06 2025 00:02:28 GMT+0000 (Coordinated Universal Time)

1 35946U 09055A 25186.57101654 .00000092 00000+0 45453-4 0 9992 2 35946 98.4811 259.9039 0004629 161.7431 198.3922 14.37277850825846
UTC large
Height (km)
Speed (km/s)
/
Latitude / Longitude
Inclination (degrees)
Orbital Period (minutes)
Azimuth
Elevation
Range (km)
Doppler Factor

Next 0 passes for location: London (51.5072 / 0.1276)

Sorry there are no passes over London.